Hourly Data Report for June 24, 2012

All times are specified in Local Standard Time (LST). Add 1 hour to adjust for Daylight Saving Time where and when it is observed.

ABBOTSFORD A
BRITISH COLUMBIA

49°01'31.000" N
122°21'36.000" W
59.10 m
1100031
71108
YXX

Download Data

Hourly Data (June 2012)
Hourly Data Report for June 24, 2012
Temp Definition
°C
Dew Point Temp Definition
°C
Rel Hum Definition
%
Wind Dir Definition
10's deg

Wind Spd Definition
km/h
Visibility Definition
km
Stn Press Definition
kPa
Hmdx Definition


Wind Chill Definition


Weather Definition


TIME
00:00 8.9 8.3 96 1 5 10.0 100.80     LegendNANA
01:00 8.7 8.3 97 32 5 10.0 100.77     Mainly Clear
02:00 8.3 8.0 98 4 5 10.0 100.76     LegendNANA
03:00 8.1 8.0 99 0 8 10.0 100.72     LegendNANA
04:00 7.6 7.3 98   0 10.0 100.74     Fog
05:00 8.0 7.7 98 34 5 10.0 100.72     LegendNANA
06:00 8.8 8.5 98 24 7 10.0 100.76     LegendNANA
07:00 9.6 9.3 98 18 5 4.8 100.82     Fog
08:00 9.9 9.8 99 18 9 4.8 100.95     Fog
09:00 10.9 10.0 94 25 5 10.0 100.94     LegendNANA
10:00 13.1 10.1 82 20 5 10.0 100.97     Mostly Cloudy
11:00 14.7 9.3 70 22 5 10.0 100.96     LegendNANA
12:00 15.6 9.1 65 24 11 10.0 100.96     LegendNANA
13:00 16.9 8.9 59 26 11 10.0 100.98     Mostly Cloudy
14:00 17.3 10.0 62   0 10.0 101.00     LegendNANA
15:00 16.8 9.8 63 19 12 10.0 101.05     LegendNANA
16:00 17.3 9.8 61 19 8 10.0 101.02     Mostly Cloudy
17:00 17.8 9.5 58 21 10 10.0 101.04     LegendNANA
18:00 17.6 9.6 59 23 12 10.0 101.07     LegendNANA
19:00 17.0 8.5 57 19 12 10.0 101.12     Mainly Clear
20:00 14.6 9.2 70 23 9 10.0 101.14     LegendNANA
21:00 13.6 9.7 77   0 10.0 101.15     LegendNANA
22:00 12.2 9.6 84 9 5 10.0 101.14     Clear
23:00 10.5 8.9 90   0 10.0 101.07     LegendNANA

Notes on Data Quality.

Legend

  • E = Estimated
  • M = Missing
  • NA = Not Available
Date modified: